Location: Berlin
(38.3226°N, 75.2177°W)
Time: 06:31:22
(UTC+00:00)

Cosmos 2227 Rocket - Pass Details

Date: 26 October 2020
Orbit: 839 x 845 km, 71.0° (Epoch: 26 November)

Event Time Altitude Azimuth Distance (km) Brightness Sun altitude
Rises 00:41:53 0° 330° (NNW) 3,404 5.8 -30.6°
Reaches altitude 10° 00:44:26 10° 324° (NW) 2,466 5.1 -31.1°
Maximum altitude 00:49:44 43° 254° (WSW) 1,165 3.2 -32.1°
Enters shadow 00:51:00 38° 222° (SW) 1,272 3.2 -32.4°
